| time (UTC) | temp C | wind direction | speed KPH | gust KPH | rain 1hr cm | rain 24hr cm | rain mn cm | humidity % | barometer mb |
| 20260904103035 | 13 | 234 | 0.0 | 0.0 | 0.00 | 0.00 | 0.00 | 55 | 1002.3 |
| 20260904101531 | 14 | 234 | 0.0 | 0.0 | 0.00 | 0.00 | 0.00 | 54 | 1002.2 |
| 20260904100028 | 14 | 234 | 0.0 | 0.0 | 0.00 | 0.00 | 0.00 | 53 | 1002.2 |
| 20260904094538 | 15 | 234 | 0.0 | 0.0 | 0.00 | 0.00 | 0.00 | 53 | 1001.9 |
| 20260904093025 | 15 | 234 | 0.0 | 0.0 | 0.00 | 0.00 | 0.00 | 52 | 1001.9 |
| 20260904091532 | 15 | 213 | 0.0 | 0.0 | 0.00 | 0.00 | 0.00 | 52 | 1001.8 |
| 20260904090021 | 15 | 213 | 0.0 | 0.0 | 0.00 | 0.00 | 0.00 | 54 | 1001.7 |
| 20260904084519 | 15 | 213 | 0.0 | 0.0 | 0.00 | 0.00 | 0.00 | 49 | 1001.7 |
| 20260904083016 | 16 | 213 | 0.0 | 0.0 | 0.00 | 0.00 | 0.00 | 48 | 1001.6 |
| 20260904081515 | 16 | 213 | 0.0 | 0.0 | 0.00 | 0.00 | 0.00 | 48 | 1001.6 |
| 20260904074510 | 16 | 213 | 0.0 | 0.0 | 0.00 | 0.00 | 0.00 | 47 | 1001.3 |
| 20260904073008 | 17 | 213 | 0.0 | 0.0 | 0.00 | 0.00 | 0.00 | 46 | 1001.5 |
| 20260904071506 | 17 | 213 | 0.0 | 0.0 | 0.00 | 0.00 | 0.00 | 47 | 1001.5 |
| 20260904070004 | 17 | 213 | 0.0 | 0.0 | 0.00 | 0.00 | 0.00 | 46 | 1001.7 |
| 20260904064625 | 17 | 138 | 0.0 | 0.0 | 0.00 | 0.00 | 0.00 | 48 | 1001.7 |
| 20260904063113 | 18 | 169 | 0.0 | 0.0 | 0.00 | 0.00 | 0.00 | 46 | 1002.0 |
| 20260904061553 | 18 | 169 | 0.0 | 0.0 | 0.00 | 0.00 | 0.00 | 46 | 1002.1 |
| 20260904060105 | 19 | 109 | 0.0 | 0.0 | 0.00 | 0.00 | 0.00 | 43 | 1002.2 |
| 20260904054552 | 19 | 109 | 0.0 | 4.8 | 0.00 | 0.00 | 0.00 | 41 | 1002.2 |
| 20260904053048 | 20 | 252 | 0.0 | 0.0 | 0.00 | 0.00 | 0.00 | 40 | 1001.7 |
| 20260904051547 | 21 | 252 | 0.0 | 0.0 | 0.00 | 0.00 | 0.00 | 37 | 1001.5 |
| 20260904050050 | 21 | 252 | 0.0 | 0.0 | 0.00 | 0.00 | 0.00 | 35 | 1001.4 |
| 20260904044546 | 22 | 252 | 0.0 | 1.6 | 0.00 | 0.00 | 0.00 | 34 | 1001.4 |
| 20260904043046 | 22 | 252 | 0.0 | 0.0 | 0.00 | 0.00 | 0.00 | 33 | 1001.5 |
| 20260904041545 | 23 | 252 | 0.0 | 0.0 | 0.00 | 0.00 | 0.00 | 33 | 1001.5 |
| 20260904040047 | 23 | 252 | 0.0 | 0.0 | 0.00 | 0.00 | 0.00 | 32 | 1001.4 |
| 20260904034547 | 23 | 298 | 0.0 | 14.5 | 0.00 | 0.00 | 0.00 | 32 | 1001.3 |
| 20260904033043 | 23 | 318 | 0.0 | 6.4 | 0.00 | 0.00 | 0.00 | 32 | 1001.0 |
| 20260904031543 | 24 | 277 | 0.0 | 6.4 | 0.00 | 0.00 | 0.00 | 32 | 1001.1 |
| 20260904030043 | 24 | 327 | 0.0 | 8.0 | 0.00 | 0.00 | 0.00 | 32 | 1001.0 |
| 20260904024543 | 24 | 317 | 0.0 | 8.0 | 0.00 | 0.00 | 0.00 | 32 | 1000.8 |
| 20260904023044 | 24 | 317 | 0.0 | 6.4 | 0.00 | 0.00 | 0.00 | 31 | 1000.8 |
| 20260904021551 | 25 | 302 | 0.0 | 3.2 | 0.00 | 0.00 | 0.00 | 31 | 1000.6 |
| 20260904020042 | 25 | 337 | 0.0 | 1.6 | 0.00 | 0.00 | 0.00 | 29 | 1000.4 |
| 20260904013103 | 27 | 5 | 0.0 | 0.0 | 0.00 | 0.00 | 0.00 | 28 | 1000.4 |
| 20260904011539 | 28 | 21 | 0.0 | 0.0 | 0.00 | 0.00 | 0.00 | 26 | 1000.4 |
| 20260904010039 | 29 | 50 | 0.0 | 0.0 | 0.00 | 0.00 | 0.00 | 24 | 1000.4 |
| 20260904004538 | 30 | 50 | 0.0 | 6.4 | 0.00 | 0.00 | 0.00 | 23 | 1000.4 |
| 20260904003038 | 30 | 54 | 0.0 | 12.9 | 0.00 | 0.00 | 0.00 | 21 | 1000.4 |
| 20260904001554 | 31 | 55 | 0.0 | 6.4 | 0.00 | 0.00 | 0.00 | 21 | 1000.3 |
| 20260904000036 | 32 | 55 | 1.6 | 16.1 | 0.00 | 0.00 | 0.00 | 20 | 1000.3 |
| 20260903234536 | 32 | 36 | 0.0 | 8.0 | 0.00 | 0.00 | 0.00 | 19 | 1000.3 |
| 20260903233042 | 34 | 28 | 0.0 | 3.2 | 0.00 | 0.00 | 0.00 | 17 | 1000.1 |
| 20260903231535 | 34 | 30 | 0.0 | 4.8 | 0.00 | 0.00 | 0.00 | 17 | 1000.2 |
| 20260903230035 | 34 | 35 | 0.0 | 1.6 | 0.00 | 0.00 | 0.00 | 17 | 1000.2 |
| 20260903224536 | 34 | 342 | 0.0 | 6.4 | 0.00 | 0.00 | 0.00 | 18 | 1000.3 |
| 20260903223029 | 33 | 13 | 0.0 | 8.0 | 0.00 | 0.00 | 0.00 | 18 | 1000.5 |
| 20260903221527 | 33 | 78 | 0.0 | 8.0 | 0.00 | 0.00 | 0.00 | 18 | 1000.6 |
| 20260903220025 | 33 | 60 | 1.6 | 17.7 | 0.00 | 0.00 | 0.00 | 17 | 1000.8 |
| 20260903214533 | 33 | 50 | 0.0 | 12.9 | 0.00 | 0.00 | 0.00 | 19 | 1001.0 |
| 20260903213032 | 33 | 92 | 0.0 | 4.8 | 0.00 | 0.00 | 0.00 | 19 | 1001.2 |
| 20260903211518 | 33 | 87 | 0.0 | 8.0 | 0.00 | 0.00 | 0.00 | 19 | 1001.4 |
| 20260903210016 | 32 | 65 | 0.0 | 9.7 | 0.00 | 0.00 | 0.00 | 20 | 1001.5 |
| 20260903204514 | 32 | 53 | 0.0 | 12.9 | 0.00 | 0.00 | 0.00 | 20 | 1001.8 |
| 20260903203012 | 32 | 110 | 3.2 | 14.5 | 0.00 | 0.00 | 0.00 | 19 | 1002.0 |
| 20260903201513 | 32 | 57 | 0.0 | 22.5 | 0.00 | 0.00 | 0.00 | 21 | 1002.0 |
| 20260903200009 | 32 | 134 | 0.0 | 8.0 | 0.00 | 0.00 | 0.00 | 20 | 1002.2 |
| 20260903194507 | 32 | 75 | 3.2 | 17.7 | 0.00 | 0.00 | 0.00 | 20 | 1002.3 |
| 20260903193008 | 32 | 158 | 0.0 | 8.0 | 0.00 | 0.00 | 0.00 | 20 | 1002.4 |
| 20260903191501 | 31 | 88 | 0.0 | 16.1 | 0.00 | 0.00 | 0.00 | 20 | 1002.7 |
| 20260903190058 | 31 | 98 | 0.0 | 12.9 | 0.00 | 0.00 | 0.00 | 20 | 1002.9 |
| 20260903184605 | 31 | 77 | 0.0 | 14.5 | 0.00 | 0.00 | 0.00 | 22 | 1003.0 |
| 20260903183154 | 31 | 112 | 0.0 | 16.1 | 0.00 | 0.00 | 0.00 | 21 | 1003.3 |
| 20260903181554 | 30 | 62 | 0.0 | 8.0 | 0.00 | 0.00 | 0.00 | 23 | 1003.6 |
| 20260903180052 | 30 | 71 | 0.0 | 14.5 | 0.00 | 0.00 | 0.00 | 25 | 1003.8 |
| 20260903174547 | 29 | 153 | 0.0 | 12.9 | 0.00 | 0.00 | 0.00 | 24 | 1003.9 |
| 20260903173044 | 29 | 74 | 0.0 | 11.3 | 0.00 | 0.00 | 0.00 | 24 | 1004.0 |
| 20260903171546 | 28 | 79 | 1.6 | 14.5 | 0.00 | 0.00 | 0.00 | 26 | 1004.2 |
| 20260903170047 | 28 | 107 | 1.6 | 11.3 | 0.00 | 0.00 | 0.00 | 26 | 1004.2 |
| 20260903164537 | 27 | 87 | 0.0 | 11.3 | 0.00 | 0.00 | 0.00 | 29 | 1004.3 |
| 20260903163035 | 27 | 115 | 0.0 | 9.7 | 0.00 | 0.00 | 0.00 | 29 | 1004.4 |
| 20260903161530 | 26 | 110 | 0.0 | 6.4 | 0.00 | 0.00 | 0.00 | 29 | 1004.4 |
| 20260903160027 | 26 | 86 | 0.0 | 6.4 | 0.00 | 0.00 | 0.00 | 33 | 1004.6 |
| 20260903154522 | 25 | 109 | 0.0 | 6.4 | 0.00 | 0.00 | 0.00 | 34 | 1004.6 |
| 20260903153018 | 24 | 93 | 0.0 | 0.0 | 0.00 | 0.00 | 0.00 | 37 | 1004.6 |
| 20260903151515 | 23 | 135 | 0.0 | 0.0 | 0.00 | 0.00 | 0.00 | 42 | 1004.7 |
| 20260903150015 | 21 | 228 | 0.0 | 0.0 | 0.00 | 0.00 | 0.00 | 48 | 1004.8 |
| 20260903144513 | 20 | 228 | 0.0 | 0.0 | 0.00 | 0.00 | 0.00 | 47 | 1005.0 |
| 20260903143001 | 18 | 245 | 0.0 | 0.0 | 0.00 | 0.00 | 0.00 | 53 | 1005.1 |
| 20260903141559 | 17 | 245 | 0.0 | 0.0 | 0.00 | 0.00 | 0.00 | 55 | 1005.3 |
| 20260903140100 | 15 | 232 | 0.0 | 0.0 | 0.00 | 0.00 | 0.00 | 57 | 1005.2 |
| 20260903134620 | 13 | 271 | 0.0 | 0.0 | 0.00 | 0.00 | 0.00 | 64 | 1005.2 |
| 20260903133057 | 13 | 5 | 0.0 | 0.0 | 0.00 | 0.00 | 0.00 | 65 | 1005.0 |
| 20260903131554 | 12 | 239 | 0.0 | 0.0 | 0.00 | 0.00 | 0.00 | 67 | 1004.9 |
| 20260903130105 | 12 | 245 | 0.0 | 0.0 | 0.00 | 0.00 | 0.00 | 68 | 1004.7 |
| 20260903124556 | 12 | 245 | 0.0 | 0.0 | 0.00 | 0.00 | 0.00 | 66 | 1004.5 |
| 20260903123051 | 12 | 231 | 0.0 | 0.0 | 0.00 | 0.00 | 0.00 | 67 | 1004.3 |
| 20260903120115 | 12 | 232 | 0.0 | 0.0 | 0.00 | 0.00 | 0.00 | 63 | 1004.1 |
| 20260903114600 | 12 | 232 | 0.0 | 0.0 | 0.00 | 0.00 | 0.00 | 66 | 1003.9 |
| 20260903113044 | 12 | 231 | 0.0 | 0.0 | 0.00 | 0.00 | 0.00 | 67 | 1003.8 |
| 20260903111542 | 12 | 232 | 0.0 | 0.0 | 0.00 | 0.00 | 0.00 | 66 | 1003.8 |
| 20260903110041 | 12 | 232 | 0.0 | 0.0 | 0.00 | 0.00 | 0.00 | 67 | 1003.9 |
| 20260903104540 | 13 | 232 | 0.0 | 0.0 | 0.00 | 0.00 | 0.00 | 66 | 1003.7 |